START_TIME,STEP,MOV.,AL01,t_acc.,AL02,t_acc.,E37,t_acc.,H21,t_acc.
1979-07-13 21:00:34.610 ,0,0,0.,24.0,0.,24.0,0.,24.0,0.,24.0
1979-07-13 21:00:58.610 ,0,1,0.,24.0,1.,24.0,0.,24.0,0.,24.0
1979-07-13 21:01:22.610 ,0,0,0.,24.0,0.,24.0,0.,24.0,0.,24.0
1979-07-13 21:01:46.610 ,1,1,0.,24.0,0.,24.0,0.,24.0,0.,24.0
1979-07-13 21:02:10.610 ,1,0,0.,24.0,1.,24.0,0.,24.0,0.,24.0
1979-07-13 21:02:34.610 ,2,1,0.,24.0,0.,24.0,0.,24.0,0.,24.0
1979-07-13 21:02:58.610 ,2,0,1.,24.0,1.,24.0,0.,24.0,0.,24.0
1979-07-13 21:03:22.610 ,3,1,1.,24.0,1.,24.0,0.,24.0,0.,24.0
1979-07-13 21:03:46.610 ,3,0,1.,24.0,0.,24.0,0.,24.0,0.,24.0
1979-07-13 21:04:10.610 ,4,1,1.,24.0,0.,24.0,0.,24.0,0.,24.0
1979-07-13 21:04:34.610 ,4,0,0.,24.0,0.,24.0,0.,24.0,0.,24.0
1979-07-13 21:04:58.610 ,5,1,0.,24.0,0.,24.0,0.,24.0,0.,24.0
1979-07-13 21:05:22.610 ,5,0,1.,24.0,0.,24.0,0.,24.0,0.,24.0
1979-07-13 21:05:46.610 ,6,1,0.,24.0,0.,24.0,0.,24.0,0.,24.0
1979-07-13 21:06:10.610 ,6,0,1.,24.0,0.,24.0,0.,24.0,0.,24.0
1979-07-13 21:06:34.610 ,7,0,11.,24.0,0.,24.0,0.,24.0,0.,24.0
1979-07-13 21:06:58.610 ,7,0,40.,24.0,0.,24.0,0.,24.0,0.,24.0
1979-07-13 21:07:22.610 ,5,1,11.,24.0,0.,24.0,0.,24.0,0.,24.0
1979-07-13 21:07:46.610 ,1,1,0.,24.0,0.,24.0,0.,24.0,0.,24.0
1979-07-13 21:08:10.610 ,2,1,0.,24.0,0.,24.0,0.,24.0,0.,24.0
1979-07-13 21:08:34.610 ,6,1,0.,24.0,0.,24.0,0.,24.0,0.,24.0
1979-07-13 21:08:58.610 ,5,1,14.,24.0,0.,24.0,0.,24.0,0.,24.0
1979-07-13 21:09:22.610 ,1,1,0.,24.0,1.,24.0,0.,24.0,0.,24.0
1979-07-13 21:09:46.610 ,2,1,0.,24.0,0.,24.0,0.,24.0,0.,24.0
1979-07-13 21:10:10.610 ,6,1,1.,24.0,0.,24.0,0.,24.0,0.,24.0
1979-07-13 21:10:34.610 ,5,1,9.,24.0,1.,24.0,0.,24.0,0.,24.0
1979-07-13 21:10:58.610 ,1,1,1.,24.0,0.,24.0,0.,24.0,0.,24.0
1979-07-13 21:11:22.610 ,2,1,0.,24.0,0.,24.0,0.,24.0,0.,24.0
1979-07-13 21:11:46.610 ,6,1,0.,24.0,1.,24.0,0.,24.0,0.,24.0
1979-07-13 21:12:10.610 ,5,1,10.,24.0,0.,24.0,0.,24.0,0.,24.0
1979-07-13 21:12:34.610 ,1,1,0.,24.0,0.,24.0,0.,24.0,0.,24.0
1979-07-13 21:12:58.610 ,2,1,2.,24.0,0.,24.0,0.,24.0,0.,24.0
1979-07-13 21:13:22.610 ,6,1,1.,24.0,0.,24.0,0.,24.0,0.,24.0
1979-07-13 21:13:46.610 ,5,1,15.,24.0,0.,24.0,0.,24.0,0.,24.0
1979-07-13 21:14:10.610 ,1,1,1.,24.0,1.,24.0,0.,24.0,0.,24.0
1979-07-13 21:14:34.610 ,2,1,1.,24.0,0.,24.0,0.,24.0,0.,24.0
1979-07-13 21:14:58.610 ,6,1,1.,24.0,0.,24.0,0.,24.0,0.,24.0
1979-07-13 21:15:22.610 ,5,1,14.,24.0,0.,24.0,0.,24.0,0.,24.0
1979-07-13 21:15:46.610 ,1,1,2.,24.0,1.,24.0,0.,24.0,0.,24.0
1979-07-13 21:16:10.610 ,2,1,0.,24.0,0.,24.0,0.,24.0,0.,24.0
1979-07-13 21:16:34.610 ,6,1,0.,24.0,0.,24.0,0.,24.0,0.,24.0
1979-07-13 21:16:58.610 ,5,1,14.,24.0,0.,24.0,0.,24.0,0.,24.0
1979-07-13 21:17:22.610 ,1,1,0.,24.0,0.,24.0,0.,24.0,0.,24.0
1979-07-13 21:17:46.610 ,0,0,2.,24.0,0.,24.0,0.,24.0,0.,24.0
1979-07-13 21:18:10.610 ,0,0,1.,24.0,0.,24.0,0.,24.0,0.,24.0
1979-07-13 21:18:34.610 ,5,1,16.,24.0,0.,24.0,0.,24.0,0.,24.0
1979-07-13 21:18:58.610 ,5,0,0.,24.0,0.,24.0,0.,24.0,0.,24.0
1979-07-13 21:19:22.610 ,4,1,0.,24.0,0.,24.0,0.,24.0,0.,24.0
1979-07-13 21:19:46.610 ,4,0,0.,24.0,0.,24.0,0.,24.0,0.,24.0
1979-07-13 21:20:10.610 ,3,1,0.,24.0,1.,24.0,0.,24.0,0.,24.0
1979-07-13 21:20:34.610 ,3,0,0.,24.0,0.,24.0,0.,24.0,0.,24.0
1979-07-13 21:20:58.610 ,2,1,0.,24.0,0.,24.0,0.,24.0,0.,24.0
1979-07-13 21:21:22.610 ,2,0,0.,24.0,1.,24.0,0.,24.0,0.,24.0
1979-07-13 21:21:46.610 ,1,1,0.,24.0,0.,24.0,0.,24.0,0.,24.0
1979-07-13 21:22:10.610 ,1,0,0.,24.0,0.,24.0,0.,24.0,0.,24.0
1979-07-13 21:22:34.610 ,0,1,0.,24.0,0.,24.0,0.,24.0,0.,24.0
1979-07-13 21:22:58.610 ,0,0,1.,24.0,2.,24.0,0.,24.0,0.,24.0
1979-07-13 21:24:10.610 ,0,0,0.,24.0,0.,24.0,0.,24.0,0.,24.0
1979-07-13 21:24:34.610 ,0,0,0.,24.0,1.,24.0,0.,24.0,0.,24.0
1979-07-13 21:24:58.610 ,2,1,0.,24.0,0.,24.0,0.,24.0,0.,24.0
1979-07-13 21:25:22.610 ,2,0,0.,24.0,1.,24.0,0.,24.0,0.,24.0
1979-07-13 21:25:46.610 ,3,1,0.,24.0,1.,24.0,0.,24.0,0.,24.0
1979-07-13 21:26:10.610 ,3,0,0.,24.0,0.,24.0,0.,24.0,0.,24.0
1979-07-13 21:26:34.610 ,4,1,0.,24.0,0.,24.0,0.,24.0,0.,24.0
1979-07-13 21:26:58.610 ,4,0,0.,24.0,0.,24.0,0.,24.0,0.,24.0
1979-07-13 21:27:22.610 ,5,1,0.,24.0,1.,24.0,0.,24.0,0.,24.0
1979-07-13 21:27:46.610 ,5,0,0.,24.0,1.,24.0,0.,24.0,0.,24.0
1979-07-13 21:28:10.610 ,6,1,1.,24.0,1.,24.0,0.,24.0,0.,24.0
1979-07-13 21:28:34.610 ,6,0,0.,24.0,0.,24.0,0.,24.0,0.,24.0
1979-07-13 21:28:58.610 ,7,1,15.,24.0,1.,24.0,0.,24.0,0.,24.0
1979-07-13 21:29:22.610 ,7,0,30.,24.0,0.,24.0,0.,24.0,0.,24.0
1979-07-13 21:29:46.610 ,7,1,22.,24.0,0.,24.0,0.,24.0,0.,24.0
1979-07-13 21:30:10.610 ,7,0,23.,24.0,0.,24.0,0.,24.0,0.,24.0
1979-07-13 21:30:34.610 ,6,1,33.,24.0,1.,24.0,0.,24.0,0.,24.0
1979-07-13 21:30:58.610 ,6,0,2.,24.0,1.,24.0,0.,24.0,0.,24.0
1979-07-13 21:31:22.610 ,5,1,0.,24.0,0.,24.0,0.,24.0,0.,24.0
1979-07-13 21:31:46.610 ,5,0,1.,24.0,0.,24.0,0.,24.0,0.,24.0
1979-07-13 21:32:10.610 ,4,1,1.,24.0,0.,24.0,0.,24.0,0.,24.0
1979-07-13 21:32:34.610 ,4,0,0.,24.0,0.,24.0,0.,24.0,0.,24.0
1979-07-13 21:32:58.610 ,3,1,0.,24.0,0.,24.0,0.,24.0,0.,24.0
1979-07-13 21:33:22.610 ,3,0,1.,24.0,0.,24.0,0.,24.0,0.,24.0
1979-07-13 21:33:46.610 ,2,1,1.,24.0,0.,24.0,0.,24.0,0.,24.0
1979-07-13 21:34:10.610 ,2,0,0.,24.0,0.,24.0,0.,24.0,0.,24.0
1979-07-13 21:34:34.610 ,1,1,2.,24.0,0.,24.0,0.,24.0,0.,24.0
1979-07-13 21:34:58.610 ,1,0,0.,24.0,0.,24.0,0.,24.0,0.,24.0
1979-07-13 21:35:22.610 ,0,1,0.,24.0,0.,24.0,0.,24.0,0.,24.0
1979-07-13 21:35:46.610 ,0,0,0.,24.0,1.,24.0,0.,24.0,0.,24.0
1979-07-13 21:36:10.610 ,0,1,0.,24.0,1.,24.0,0.,24.0,0.,24.0
1979-07-13 21:36:34.610 ,0,0,0.,24.0,0.,24.0,0.,24.0,0.,24.0
1979-07-13 21:36:58.610 ,1,1,1.,24.0,0.,24.0,0.,24.0,0.,24.0
1979-07-13 21:37:22.610 ,1,0,0.,24.0,2.,24.0,0.,24.0,0.,24.0
1979-07-13 21:37:46.610 ,2,1,0.,24.0,0.,24.0,0.,24.0,0.,24.0
1979-07-13 21:38:10.610 ,2,0,0.,24.0,0.,24.0,0.,24.0,0.,24.0
1979-07-13 21:38:34.610 ,3,1,0.,24.0,0.,24.0,0.,24.0,0.,24.0
1979-07-13 21:38:58.610 ,3,0,0.,24.0,0.,24.0,0.,24.0,0.,24.0
1979-07-13 21:39:22.610 ,4,1,0.,24.0,0.,24.0,0.,24.0,0.,24.0
1979-07-13 21:39:46.610 ,4,0,0.,24.0,0.,24.0,0.,24.0,0.,24.0
1979-07-13 21:40:10.610 ,5,1,0.,24.0,0.,24.0,0.,24.0,0.,24.0
1979-07-13 21:40:34.610 ,5,0,0.,24.0,0.,24.0,0.,24.0,0.,24.0
1979-07-13 21:40:58.610 ,6,1,0.,24.0,0.,24.0,0.,24.0,0.,24.0
1979-07-13 21:41:22.610 ,6,0,0.,24.0,0.,24.0,0.,24.0,0.,24.0
1979-07-13 21:41:46.610 ,7,1,6.,24.0,0.,24.0,0.,24.0,0.,24.0
1979-07-13 21:42:10.610 ,7,0,27.,24.0,0.,24.0,0.,24.0,0.,24.0
1979-07-13 21:42:34.610 ,7,1,33.,24.0,0.,24.0,0.,24.0,0.,24.0
1979-07-13 21:42:58.610 ,7,0,27.,24.0,0.,24.0,0.,24.0,0.,24.0
1979-07-13 21:44:58.610 ,0,0,1.,24.0,0.,24.0,0.,24.0,0.,24.0
1979-07-13 21:45:22.610 ,0,0,1.,24.0,0.,24.0,0.,24.0,0.,24.0
1979-07-13 21:45:46.610 ,3,1,0.,24.0,0.,24.0,0.,24.0,0.,24.0
1979-07-13 21:46:10.610 ,3,0,0.,24.0,0.,24.0,0.,24.0,0.,24.0
1979-07-13 21:46:34.610 ,2,1,0.,24.0,0.,24.0,0.,24.0,0.,24.0
1979-07-13 21:46:58.610 ,2,0,1.,24.0,0.,24.0,0.,24.0,0.,24.0
1979-07-13 21:47:22.610 ,1,1,0.,24.0,0.,24.0,0.,24.0,0.,24.0
1979-07-13 21:47:46.610 ,1,0,1.,24.0,0.,24.0,0.,24.0,0.,24.0
1979-07-13 21:48:10.610 ,0,1,0.,24.0,0.,24.0,0.,24.0,0.,24.0
1979-07-13 21:48:34.610 ,0,0,0.,24.0,0.,24.0,0.,24.0,0.,24.0
1979-07-13 21:48:58.610 ,0,1,0.,24.0,0.,24.0,0.,24.0,0.,24.0
1979-07-13 21:49:22.610 ,0,0,0.,24.0,0.,24.0,0.,24.0,0.,24.0
1979-07-13 21:49:46.610 ,1,1,0.,24.0,0.,24.0,0.,24.0,0.,24.0
1979-07-13 21:50:10.610 ,1,0,1.,24.0,0.,24.0,0.,24.0,0.,24.0
1979-07-13 21:50:34.610 ,2,1,0.,24.0,0.,24.0,0.,24.0,0.,24.0
1979-07-13 21:50:58.610 ,2,0,0.,24.0,0.,24.0,0.,24.0,0.,24.0
1979-07-13 21:51:22.610 ,3,1,0.,24.0,0.,24.0,0.,24.0,0.,24.0
1979-07-13 21:51:46.610 ,3,0,0.,24.0,0.,24.0,0.,24.0,0.,24.0
1979-07-13 21:52:10.610 ,4,1,0.,24.0,1.,24.0,0.,24.0,0.,24.0
1979-07-13 21:52:34.610 ,4,0,0.,24.0,0.,24.0,0.,24.0,0.,24.0
1979-07-13 21:52:58.610 ,5,1,1.,24.0,0.,24.0,0.,24.0,0.,24.0
1979-07-13 21:53:22.610 ,5,0,0.,24.0,0.,24.0,0.,24.0,0.,24.0
1979-07-13 21:53:46.610 ,6,1,0.,24.0,0.,24.0,0.,24.0,0.,24.0
1979-07-13 21:54:10.610 ,6,0,2.,24.0,0.,24.0,0.,24.0,0.,24.0
1979-07-13 21:54:34.610 ,7,0,10.,24.0,1.,24.0,0.,24.0,0.,24.0
1979-07-13 21:54:58.610 ,7,0,20.,24.0,0.,24.0,0.,24.0,0.,24.0
1979-07-13 21:55:22.610 ,5,1,17.,24.0,1.,24.0,0.,24.0,0.,24.0
1979-07-13 21:55:46.610 ,1,1,0.,24.0,0.,24.0,0.,24.0,0.,24.0
1979-07-13 21:56:10.610 ,2,1,0.,24.0,0.,24.0,0.,24.0,0.,24.0
1979-07-13 21:56:34.610 ,6,1,0.,24.0,0.,24.0,0.,24.0,0.,24.0
1979-07-13 21:56:58.610 ,5,1,10.,24.0,0.,24.0,0.,24.0,0.,24.0
1979-07-13 21:57:22.610 ,1,1,0.,24.0,1.,24.0,0.,24.0,0.,24.0
1979-07-13 21:57:46.610 ,2,1,0.,24.0,0.,24.0,0.,24.0,0.,24.0
1979-07-13 21:58:10.610 ,6,1,0.,24.0,0.,24.0,0.,24.0,0.,24.0
1979-07-13 21:58:34.610 ,5,1,18.,24.0,0.,24.0,0.,24.0,0.,24.0
1979-07-13 21:58:58.610 ,1,1,0.,24.0,0.,24.0,0.,24.0,0.,24.0
1979-07-13 21:59:22.610 ,2,1,1.,24.0,0.,24.0,0.,24.0,0.,24.0
1979-07-13 21:59:46.610 ,6,1,0.,24.0,0.,24.0,0.,24.0,0.,24.0
1979-07-13 22:00:10.610 ,5,1,15.,24.0,0.,24.0,0.,24.0,0.,24.0
1979-07-13 22:00:34.610 ,1,1,0.,24.0,1.,24.0,0.,24.0,0.,24.0
1979-07-13 22:00:58.610 ,2,1,0.,24.0,0.,24.0,0.,24.0,0.,24.0
1979-07-13 22:01:22.610 ,6,1,0.,24.0,0.,24.0,0.,24.0,0.,24.0
1979-07-13 22:01:46.610 ,5,1,20.,24.0,0.,24.0,0.,24.0,0.,24.0
1979-07-13 22:02:10.610 ,1,1,0.,24.0,1.,24.0,0.,24.0,0.,24.0
1979-07-13 22:02:34.610 ,2,1,0.,24.0,0.,24.0,0.,24.0,0.,24.0
1979-07-13 22:02:58.610 ,6,1,0.,24.0,0.,24.0,0.,24.0,0.,24.0
1979-07-13 22:03:22.610 ,5,1,23.,24.0,0.,24.0,0.,24.0,0.,24.0
1979-07-13 22:03:46.610 ,1,1,0.,24.0,0.,24.0,0.,24.0,0.,24.0
1979-07-13 22:04:10.610 ,2,1,0.,24.0,0.,24.0,0.,24.0,0.,24.0
1979-07-13 22:04:34.610 ,6,1,0.,24.0,0.,24.0,0.,24.0,0.,24.0
1979-07-13 22:04:58.610 ,5,1,14.,24.0,0.,24.0,0.,24.0,0.,24.0
1979-07-13 22:05:22.610 ,1,1,0.,24.0,1.,24.0,0.,24.0,0.,24.0
1979-07-13 22:05:46.610 ,0,0,0.,24.0,0.,24.0,0.,24.0,0.,24.0
1979-07-13 22:06:10.610 ,0,0,0.,24.0,0.,24.0,0.,24.0,0.,24.0
1979-07-13 22:06:34.610 ,5,1,8.,24.0,0.,24.0,0.,24.0,0.,24.0
1979-07-13 22:06:58.610 ,5,0,0.,24.0,0.,24.0,0.,24.0,0.,24.0
1979-07-13 22:07:22.610 ,4,1,0.,24.0,0.,24.0,0.,24.0,0.,24.0
1979-07-13 22:07:46.610 ,4,0,0.,24.0,0.,24.0,0.,24.0,0.,24.0
1979-07-13 22:08:10.610 ,3,1,0.,24.0,0.,24.0,0.,24.0,0.,24.0
1979-07-13 22:08:34.610 ,3,0,0.,24.0,0.,24.0,0.,24.0,0.,24.0
1979-07-13 22:08:58.610 ,2,1,0.,24.0,0.,24.0,0.,24.0,0.,24.0
1979-07-13 22:09:22.610 ,2,0,0.,24.0,1.,24.0,0.,24.0,0.,24.0
1979-07-13 22:09:46.610 ,1,1,0.,24.0,0.,24.0,0.,24.0,0.,24.0
1979-07-13 22:10:10.610 ,1,0,0.,24.0,1.,24.0,0.,24.0,0.,24.0
1979-07-13 22:10:34.610 ,0,1,0.,24.0,0.,24.0,0.,24.0,0.,24.0
1979-07-13 22:10:58.610 ,0,0,0.,24.0,1.,24.0,0.,24.0,0.,24.0
1979-07-13 22:12:34.610 ,0,0,0.,24.0,0.,24.0,0.,24.0,0.,24.0
1979-07-13 22:12:58.610 ,2,1,0.,24.0,1.,24.0,0.,24.0,0.,24.0
1979-07-13 22:13:22.610 ,2,0,2.,24.0,0.,24.0,0.,24.0,0.,24.0
1979-07-13 22:13:46.610 ,3,1,0.,24.0,0.,24.0,0.,24.0,0.,24.0
1979-07-13 22:14:10.610 ,3,0,1.,24.0,1.,24.0,0.,24.0,0.,24.0
1979-07-13 22:14:34.610 ,4,1,1.,24.0,0.,24.0,0.,24.0,0.,24.0
1979-07-13 22:14:58.610 ,4,0,0.,24.0,1.,24.0,0.,24.0,0.,24.0
1979-07-13 22:15:22.610 ,5,1,1.,24.0,0.,24.0,0.,24.0,0.,24.0
1979-07-13 22:15:46.610 ,5,0,0.,24.0,0.,24.0,0.,24.0,0.,24.0
1979-07-13 22:16:10.610 ,6,1,0.,24.0,0.,24.0,0.,24.0,0.,24.0
1979-07-13 22:16:34.610 ,6,0,1.,24.0,1.,24.0,0.,24.0,0.,24.0
1979-07-13 22:16:58.610 ,7,1,5.,24.0,0.,24.0,0.,24.0,0.,24.0
1979-07-13 22:17:22.610 ,7,0,30.,24.0,0.,24.0,0.,24.0,0.,24.0
1979-07-13 22:17:46.610 ,7,1,17.,24.0,0.,24.0,0.,24.0,0.,24.0
1979-07-13 22:18:10.610 ,7,0,31.,24.0,0.,24.0,0.,24.0,0.,24.0
1979-07-13 22:18:34.610 ,6,1,14.,24.0,0.,24.0,0.,24.0,0.,24.0
1979-07-13 22:18:58.610 ,6,0,1.,24.0,0.,24.0,0.,24.0,0.,24.0
1979-07-13 22:19:22.610 ,5,1,3.,24.0,0.,24.0,0.,24.0,0.,24.0
1979-07-13 22:19:46.610 ,5,0,0.,24.0,0.,24.0,0.,24.0,0.,24.0
1979-07-13 22:20:10.610 ,4,1,0.,24.0,0.,24.0,0.,24.0,0.,24.0
1979-07-13 22:20:34.610 ,4,0,0.,24.0,1.,24.0,0.,24.0,0.,24.0
1979-07-13 22:20:58.610 ,3,1,1.,24.0,0.,24.0,0.,24.0,0.,24.0
1979-07-13 22:21:22.610 ,3,0,0.,24.0,0.,24.0,0.,24.0,0.,24.0
1979-07-13 22:21:46.610 ,2,1,0.,24.0,1.,24.0,0.,24.0,0.,24.0
1979-07-13 22:22:10.610 ,2,0,1.,24.0,0.,24.0,0.,24.0,0.,24.0
1979-07-13 22:22:34.610 ,1,1,0.,24.0,1.,24.0,0.,24.0,0.,24.0
1979-07-13 22:22:58.610 ,1,0,0.,24.0,0.,24.0,0.,24.0,0.,24.0
1979-07-13 22:23:22.610 ,0,1,0.,24.0,0.,24.0,0.,24.0,0.,24.0
1979-07-13 22:23:46.610 ,0,0,0.,24.0,0.,24.0,0.,24.0,0.,24.0
1979-07-13 22:24:10.610 ,0,1,1.,24.0,0.,24.0,0.,24.0,0.,24.0
1979-07-13 22:24:34.610 ,0,0,0.,24.0,0.,24.0,0.,24.0,0.,24.0
1979-07-13 22:24:58.610 ,1,1,0.,24.0,0.,24.0,0.,24.0,0.,24.0
1979-07-13 22:25:22.610 ,1,0,0.,24.0,0.,24.0,0.,24.0,0.,24.0
1979-07-13 22:25:22.610 ,1,0,0.,24.0,0.,24.0,0.,24.0,0.,24.0
1979-07-13 22:25:46.610 ,2,1,0.,24.0,1.,24.0,0.,24.0,0.,24.0
1979-07-13 22:26:10.610 ,2,0,0.,24.0,0.,24.0,0.,24.0,0.,24.0
1979-07-13 22:26:34.610 ,3,1,0.,24.0,0.,24.0,0.,24.0,0.,24.0
1979-07-13 22:26:58.610 ,3,0,0.,24.0,0.,24.0,0.,24.0,0.,24.0
1979-07-13 22:27:22.610 ,4,1,3.,24.0,0.,24.0,0.,24.0,0.,24.0
1979-07-13 22:27:46.610 ,4,0,2.,24.0,1.,24.0,0.,24.0,0.,24.0
1979-07-13 22:28:10.610 ,5,1,0.,24.0,1.,24.0,0.,24.0,0.,24.0
1979-07-13 22:28:34.610 ,5,0,0.,24.0,0.,24.0,0.,24.0,0.,24.0
1979-07-13 22:28:58.610 ,6,1,0.,24.0,0.,24.0,0.,24.0,0.,24.0
1979-07-13 22:29:22.610 ,6,0,0.,24.0,0.,24.0,0.,24.0,0.,24.0
1979-07-13 22:29:46.610 ,7,1,5.,24.0,0.,24.0,0.,24.0,0.,24.0
1979-07-13 22:30:10.610 ,7,0,26.,24.0,0.,24.0,0.,24.0,0.,24.0
1979-07-13 22:30:34.610 ,7,1,33.,24.0,0.,24.0,0.,24.0,0.,24.0
1979-07-13 22:30:58.610 ,7,0,43.,24.0,0.,24.0,0.,24.0,0.,24.0
1979-07-13 22:31:22.610 ,6,1,20.,24.0,0.,24.0,0.,24.0,0.,24.0
1979-07-13 22:31:46.610 ,6,0,1.,24.0,0.,24.0,0.,24.0,0.,24.0
1979-07-13 22:32:10.610 ,5,1,1.,24.0,1.,24.0,0.,24.0,0.,24.0
1979-07-13 22:32:34.610 ,5,0,1.,24.0,0.,24.0,0.,24.0,0.,24.0
1979-07-13 22:32:58.610 ,4,1,0.,24.0,0.,24.0,0.,24.0,0.,24.0
1979-07-13 22:33:22.610 ,4,0,0.,24.0,0.,24.0,0.,24.0,0.,24.0
1979-07-13 22:33:46.610 ,3,1,0.,24.0,0.,24.0,0.,24.0,0.,24.0
1979-07-13 22:34:10.610 ,3,0,1.,24.0,0.,24.0,0.,24.0,0.,24.0
1979-07-13 22:34:34.610 ,2,1,0.,24.0,0.,24.0,0.,24.0,0.,24.0
1979-07-13 22:34:58.610 ,2,0,0.,24.0,0.,24.0,0.,24.0,0.,24.0
1979-07-13 22:35:22.610 ,1,1,0.,24.0,0.,24.0,0.,24.0,0.,24.0
1979-07-13 22:35:46.610 ,1,0,0.,24.0,0.,24.0,0.,24.0,0.,24.0
1979-07-13 22:36:10.610 ,0,1,0.,24.0,0.,24.0,0.,24.0,0.,24.0
1979-07-13 22:36:34.610 ,0,0,1.,24.0,0.,24.0,0.,24.0,0.,24.0
1979-07-13 22:36:58.610 ,0,1,2.,24.0,0.,24.0,0.,24.0,0.,24.0
1979-07-13 22:37:22.610 ,0,0,0.,24.0,0.,24.0,0.,24.0,0.,24.0
1979-07-13 22:37:46.610 ,1,1,0.,24.0,0.,24.0,0.,24.0,0.,24.0
1979-07-13 22:38:10.610 ,1,0,0.,24.0,0.,24.0,0.,24.0,0.,24.0
1979-07-13 22:38:34.610 ,2,1,0.,24.0,0.,24.0,0.,24.0,0.,24.0
1979-07-13 22:38:58.610 ,2,0,0.,24.0,0.,24.0,0.,24.0,0.,24.0
1979-07-13 22:39:22.610 ,3,1,1.,24.0,0.,24.0,0.,24.0,0.,24.0
1979-07-13 22:39:46.610 ,3,0,1.,24.0,0.,24.0,0.,24.0,0.,24.0
1979-07-13 22:40:10.610 ,4,1,1.,24.0,0.,24.0,0.,24.0,0.,24.0
1979-07-13 22:40:34.610 ,4,0,1.,24.0,0.,24.0,0.,24.0,0.,24.0
1979-07-13 22:40:58.610 ,5,1,0.,24.0,1.,24.0,0.,24.0,0.,24.0
1979-07-13 22:41:22.610 ,5,0,0.,24.0,0.,24.0,0.,24.0,0.,24.0
1979-07-13 22:41:46.610 ,6,1,0.,24.0,0.,24.0,0.,24.0,0.,24.0
1979-07-13 22:42:10.610 ,6,0,0.,24.0,0.,24.0,0.,24.0,0.,24.0
1979-07-13 22:42:34.610 ,7,0,6.,24.0,1.,24.0,0.,24.0,0.,24.0
1979-07-13 22:42:58.610 ,7,0,29.,24.0,0.,24.0,0.,24.0,0.,24.0
1979-07-13 22:43:22.610 ,5,1,12.,24.0,0.,24.0,0.,24.0,0.,24.0
1979-07-13 22:43:46.610 ,1,1,1.,24.0,0.,24.0,0.,24.0,0.,24.0
1979-07-13 22:44:10.610 ,2,1,0.,24.0,0.,24.0,0.,24.0,0.,24.0
1979-07-13 22:44:34.610 ,6,1,0.,24.0,0.,24.0,0.,24.0,0.,24.0
1979-07-13 22:44:58.610 ,5,1,10.,24.0,0.,24.0,0.,24.0,0.,24.0
1979-07-13 22:45:22.610 ,1,1,1.,24.0,0.,24.0,0.,24.0,0.,24.0
1979-07-13 22:45:46.610 ,2,1,1.,24.0,0.,24.0,0.,24.0,0.,24.0
1979-07-13 22:46:10.610 ,6,1,0.,24.0,0.,24.0,0.,24.0,0.,24.0
1979-07-13 22:46:34.610 ,5,1,17.,24.0,0.,24.0,0.,24.0,0.,24.0
1979-07-13 22:46:58.610 ,1,1,1.,24.0,0.,24.0,0.,24.0,0.,24.0
1979-07-13 22:47:22.610 ,2,1,0.,24.0,0.,24.0,0.,24.0,0.,24.0
1979-07-13 22:47:46.610 ,6,1,0.,24.0,0.,24.0,0.,24.0,0.,24.0
1979-07-13 22:48:10.610 ,5,1,16.,24.0,0.,24.0,0.,24.0,0.,24.0
1979-07-13 22:48:34.610 ,1,1,0.,24.0,0.,24.0,0.,24.0,0.,24.0
1979-07-13 22:48:58.610 ,2,1,0.,24.0,0.,24.0,0.,24.0,0.,24.0
1979-07-13 22:49:22.610 ,6,1,1.,24.0,0.,24.0,0.,24.0,0.,24.0
1979-07-13 22:49:46.610 ,5,1,9.,24.0,0.,24.0,0.,24.0,0.,24.0
1979-07-13 22:50:10.610 ,1,1,2.,24.0,0.,24.0,0.,24.0,0.,24.0
1979-07-13 22:50:34.610 ,2,1,0.,24.0,1.,24.0,0.,24.0,0.,24.0
1979-07-13 22:50:58.610 ,6,1,1.,24.0,2.,24.0,0.,24.0,0.,24.0
1979-07-13 22:51:22.610 ,5,1,24.,24.0,0.,24.0,0.,24.0,0.,24.0
1979-07-13 22:51:46.610 ,1,1,0.,24.0,1.,24.0,0.,24.0,0.,24.0
1979-07-13 22:52:10.610 ,2,1,0.,24.0,0.,24.0,0.,24.0,0.,24.0
1979-07-13 22:52:34.610 ,6,1,1.,24.0,0.,24.0,0.,24.0,0.,24.0
1979-07-13 22:52:58.610 ,5,1,14.,24.0,0.,24.0,0.,24.0,0.,24.0
1979-07-13 22:53:22.610 ,1,1,0.,24.0,0.,24.0,0.,24.0,0.,24.0
1979-07-13 22:53:46.610 ,0,0,0.,24.0,1.,24.0,0.,24.0,0.,24.0
1979-07-13 22:54:10.610 ,0,0,1.,24.0,0.,24.0,0.,24.0,0.,24.0
1979-07-13 22:54:34.610 ,5,1,19.,24.0,0.,24.0,0.,24.0,0.,24.0
1979-07-13 22:54:58.610 ,5,0,0.,24.0,1.,24.0,0.,24.0,0.,24.0
1979-07-13 22:55:22.610 ,4,1,0.,24.0,2.,24.0,0.,24.0,0.,24.0
1979-07-13 22:55:46.610 ,4,0,1.,24.0,1.,24.0,0.,24.0,0.,24.0
1979-07-13 22:56:10.610 ,3,1,1.,24.0,0.,24.0,0.,24.0,0.,24.0
1979-07-13 22:56:34.610 ,3,0,1.,24.0,2.,24.0,0.,24.0,0.,24.0
1979-07-13 22:56:58.610 ,2,1,0.,24.0,0.,24.0,0.,24.0,0.,24.0
1979-07-13 22:57:22.610 ,2,0,0.,24.0,0.,24.0,0.,24.0,0.,24.0
1979-07-13 22:57:46.610 ,1,1,2.,24.0,0.,24.0,0.,24.0,0.,24.0
1979-07-13 22:58:10.610 ,1,0,1.,24.0,0.,24.0,0.,24.0,0.,24.0
1979-07-13 22:58:34.610 ,0,1,0.,24.0,0.,24.0,0.,24.0,0.,24.0
1979-07-13 22:58:58.610 ,0,0,0.,24.0,0.,24.0,0.,24.0,0.,24.0
1979-07-13 22:59:22.610 ,0,1,0.,24.0,1.,24.0,0.,24.0,0.,24.0
1979-07-13 22:59:46.610 ,0,0,0.,24.0,0.,24.0,0.,24.0,0.,24.0
1979-07-13 23:00:10.610 ,1,1,1.,24.0,0.,24.0,0.,24.0,0.,24.0
1979-07-13 23:00:34.610 ,1,0,1.,24.0,1.,24.0,0.,24.0,0.,24.0
1979-07-13 23:00:58.610 ,2,1,0.,24.0,0.,24.0,0.,24.0,0.,24.0
1979-07-13 23:01:22.610 ,2,0,0.,24.0,0.,24.0,0.,24.0,0.,24.0
1979-07-13 23:01:46.610 ,3,1,0.,24.0,0.,24.0,0.,24.0,0.,24.0
1979-07-13 23:02:10.610 ,3,0,1.,24.0,1.,24.0,0.,24.0,0.,24.0
1979-07-13 23:02:34.610 ,4,1,0.,24.0,0.,24.0,0.,24.0,0.,24.0
1979-07-13 23:02:58.610 ,4,0,0.,24.0,0.,24.0,0.,24.0,0.,24.0
1979-07-13 23:03:22.610 ,5,1,1.,24.0,0.,24.0,0.,24.0,0.,24.0
1979-07-13 23:03:46.610 ,5,0,0.,24.0,0.,24.0,0.,24.0,0.,24.0
1979-07-13 23:04:10.610 ,6,1,0.,24.0,0.,24.0,0.,24.0,0.,24.0
1979-07-13 23:04:34.610 ,6,0,0.,24.0,0.,24.0,0.,24.0,0.,24.0
1979-07-13 23:04:58.610 ,7,1,7.,24.0,0.,24.0,0.,24.0,0.,24.0
1979-07-13 23:05:22.610 ,7,0,33.,24.0,0.,24.0,0.,24.0,0.,24.0
1979-07-13 23:05:46.610 ,7,1,28.,24.0,0.,24.0,0.,24.0,0.,24.0
1979-07-13 23:06:10.600 ,7,0,29.,24.0,0.,24.0,0.,24.0,0.,24.0
1979-07-13 23:08:10.600 ,0,0,1.,24.0,0.,24.0,0.,24.0,0.,24.0
1979-07-13 23:08:34.600 ,0,0,0.,24.0,0.,24.0,0.,24.0,0.,24.0
1979-07-13 23:08:58.600 ,3,1,1.,24.0,0.,24.0,0.,24.0,0.,24.0
1979-07-13 23:09:22.600 ,3,0,1.,24.0,1.,24.0,0.,24.0,0.,24.0
1979-07-13 23:09:46.600 ,2,1,0.,24.0,0.,24.0,0.,24.0,0.,24.0
1979-07-13 23:10:10.600 ,2,0,1.,24.0,0.,24.0,0.,24.0,0.,24.0
1979-07-13 23:10:34.600 ,1,1,0.,24.0,0.,24.0,0.,24.0,0.,24.0
1979-07-13 23:10:58.600 ,1,0,1.,24.0,0.,24.0,0.,24.0,0.,24.0
1979-07-13 23:11:22.600 ,0,1,1.,24.0,0.,24.0,0.,24.0,0.,24.0
1979-07-13 23:11:46.600 ,0,0,0.,24.0,0.,24.0,0.,24.0,0.,24.0
1979-07-13 23:12:10.600 ,0,1,0.,24.0,0.,24.0,0.,24.0,0.,24.0
1979-07-13 23:12:34.600 ,0,0,1.,24.0,0.,24.0,0.,24.0,0.,24.0
1979-07-13 23:12:58.600 ,1,1,0.,24.0,0.,24.0,0.,24.0,0.,24.0
1979-07-13 23:13:22.600 ,1,0,1.,24.0,0.,24.0,0.,24.0,0.,24.0
1979-07-13 23:13:46.600 ,2,1,0.,24.0,0.,24.0,0.,24.0,0.,24.0
1979-07-13 23:14:10.600 ,2,0,0.,24.0,0.,24.0,0.,24.0,0.,24.0
1979-07-13 23:14:34.600 ,3,1,1.,24.0,0.,24.0,0.,24.0,0.,24.0
1979-07-13 23:14:58.600 ,3,0,0.,24.0,0.,24.0,0.,24.0,0.,24.0
1979-07-13 23:15:22.600 ,4,1,1.,24.0,0.,24.0,0.,24.0,0.,24.0
1979-07-13 23:15:46.600 ,4,0,0.,24.0,0.,24.0,0.,24.0,0.,24.0
1979-07-13 23:16:10.600 ,5,1,0.,24.0,0.,24.0,0.,24.0,0.,24.0
1979-07-13 23:16:34.600 ,5,0,0.,24.0,0.,24.0,0.,24.0,0.,24.0
1979-07-13 23:16:58.600 ,6,1,0.,24.0,1.,24.0,0.,24.0,0.,24.0
1979-07-13 23:17:22.610 ,6,0,0.,24.0,0.,24.0,0.,24.0,0.,24.0
1979-07-13 23:17:46.610 ,7,1,7.,24.0,0.,24.0,0.,24.0,0.,24.0
1979-07-13 23:18:10.610 ,7,0,28.,24.0,0.,24.0,0.,24.0,0.,24.0
1979-07-13 23:18:34.610 ,7,1,32.,24.0,0.,24.0,0.,24.0,0.,24.0
1979-07-13 23:18:58.610 ,7,0,41.,24.0,0.,24.0,0.,24.0,0.,24.0
1979-07-13 23:19:22.610 ,6,1,24.,24.0,0.,24.0,0.,24.0,0.,24.0
1979-07-13 23:19:46.610 ,6,0,0.,24.0,0.,24.0,0.,24.0,0.,24.0
1979-07-13 23:20:10.610 ,5,1,0.,24.0,0.,24.0,0.,24.0,0.,24.0
1979-07-13 23:20:34.610 ,5,0,1.,24.0,1.,24.0,0.,24.0,0.,24.0
1979-07-13 23:20:58.610 ,4,1,0.,24.0,0.,24.0,0.,24.0,0.,24.0
1979-07-13 23:21:22.610 ,4,0,1.,24.0,0.,24.0,0.,24.0,0.,24.0
1979-07-13 23:21:46.610 ,3,1,1.,24.0,0.,24.0,0.,24.0,0.,24.0
1979-07-13 23:22:10.610 ,3,0,0.,24.0,0.,24.0,0.,24.0,0.,24.0
1979-07-13 23:22:34.610 ,2,1,0.,24.0,0.,24.0,0.,24.0,0.,24.0
1979-07-13 23:22:58.610 ,2,0,0.,24.0,0.,24.0,0.,24.0,0.,24.0
1979-07-13 23:23:22.610 ,1,1,1.,24.0,0.,24.0,0.,24.0,0.,24.0
1979-07-13 23:23:46.610 ,1,0,0.,24.0,0.,24.0,0.,24.0,0.,24.0
1979-07-13 23:24:10.610 ,0,1,0.,24.0,0.,24.0,0.,24.0,0.,24.0
1979-07-13 23:24:34.610 ,0,0,0.,24.0,0.,24.0,0.,24.0,0.,24.0
1979-07-13 23:24:58.610 ,0,1,0.,24.0,0.,24.0,0.,24.0,0.,24.0
1979-07-13 23:25:22.610 ,0,0,0.,24.0,0.,24.0,0.,24.0,0.,24.0
1979-07-13 23:25:46.610 ,1,1,0.,24.0,0.,24.0,0.,24.0,0.,24.0
1979-07-13 23:26:10.610 ,1,0,0.,24.0,0.,24.0,0.,24.0,0.,24.0
1979-07-13 23:26:34.610 ,2,1,1.,24.0,0.,24.0,0.,24.0,0.,24.0
1979-07-13 23:26:58.610 ,2,0,0.,24.0,1.,24.0,0.,24.0,0.,24.0
1979-07-13 23:27:22.610 ,3,1,1.,24.0,0.,24.0,0.,24.0,0.,24.0
1979-07-13 23:27:46.610 ,3,0,1.,24.0,2.,24.0,0.,24.0,0.,24.0
1979-07-13 23:28:10.610 ,4,1,0.,24.0,0.,24.0,0.,24.0,0.,24.0
1979-07-13 23:28:34.610 ,4,0,0.,24.0,0.,24.0,0.,24.0,0.,24.0
1979-07-13 23:28:58.610 ,5,1,0.,24.0,1.,24.0,0.,24.0,0.,24.0
1979-07-13 23:29:22.610 ,5,0,0.,24.0,0.,24.0,0.,24.0,0.,24.0
1979-07-13 23:29:46.610 ,6,1,0.,24.0,1.,24.0,0.,24.0,0.,24.0
1979-07-13 23:30:10.610 ,6,0,1.,24.0,0.,24.0,0.,24.0,0.,24.0
1979-07-13 23:30:34.610 ,7,0,10.,24.0,0.,24.0,0.,24.0,0.,24.0
1979-07-13 23:30:58.610 ,7,0,29.,24.0,0.,24.0,0.,24.0,0.,24.0
1979-07-13 23:31:22.610 ,5,1,19.,24.0,0.,24.0,0.,24.0,0.,24.0
1979-07-13 23:31:46.610 ,1,1,0.,24.0,0.,24.0,0.,24.0,0.,24.0
1979-07-13 23:32:10.600 ,2,1,0.,24.0,0.,24.0,0.,24.0,0.,24.0
1979-07-13 23:32:34.600 ,6,1,1.,24.0,0.,24.0,0.,24.0,0.,24.0
1979-07-13 23:32:58.600 ,5,1,17.,24.0,1.,24.0,0.,24.0,0.,24.0
1979-07-13 23:33:22.600 ,1,1,0.,24.0,0.,24.0,0.,24.0,0.,24.0
1979-07-13 23:33:46.600 ,2,1,0.,24.0,0.,24.0,0.,24.0,0.,24.0
1979-07-13 23:34:10.600 ,6,1,0.,24.0,0.,24.0,0.,24.0,0.,24.0
1979-07-13 23:34:34.600 ,5,1,19.,24.0,0.,24.0,0.,24.0,0.,24.0
1979-07-13 23:34:58.600 ,1,1,2.,24.0,0.,24.0,0.,24.0,0.,24.0
1979-07-13 23:35:22.600 ,2,1,0.,24.0,0.,24.0,0.,24.0,0.,24.0
1979-07-13 23:35:46.600 ,6,1,0.,24.0,0.,24.0,0.,24.0,0.,24.0
1979-07-13 23:36:10.600 ,5,1,20.,24.0,0.,24.0,0.,24.0,0.,24.0
1979-07-13 23:36:34.600 ,1,1,0.,24.0,0.,24.0,0.,24.0,0.,24.0
1979-07-13 23:36:58.600 ,0,0,1.,24.0,0.,24.0,0.,24.0,0.,24.0
1979-07-13 23:37:22.600 ,6,1,0.,24.0,0.,24.0,0.,24.0,0.,24.0
1979-07-13 23:37:46.600 ,5,1,14.,24.0,0.,24.0,0.,24.0,0.,24.0
1979-07-13 23:38:10.600 ,1,1,0.,24.0,0.,24.0,0.,24.0,0.,24.0
1979-07-13 23:38:34.600 ,2,1,0.,24.0,1.,24.0,0.,24.0,0.,24.0
1979-07-13 23:38:58.600 ,6,1,1.,24.0,0.,24.0,0.,24.0,0.,24.0